TimeAKDT,TemperatureF,Dew PointF,Humidity,Sea Level PressureIn,VisibilityMPH,Wind Direction,Wind SpeedMPH,Gust SpeedMPH,PrecipitationIn,Events,Conditions,WindDirDegrees,DateUTC
12:53 AM,44.1,36.0,73,30.35,10.0,Calm,Calm,-,N/A,,Overcast,0,2012-10-03 08:53:00
1:53 AM,45.0,37.0,74,30.36,10.0,ENE,5.8,-,0.00,,Overcast,70,2012-10-03 09:53:00
2:53 AM,45.0,36.0,71,30.35,10.0,East,5.8,-,0.00,,Overcast,80,2012-10-03 10:53:00
3:53 AM,46.0,36.0,68,30.35,10.0,East,4.6,-,N/A,,Overcast,80,2012-10-03 11:53:00
4:53 AM,46.0,36.0,68,30.35,10.0,East,3.5,-,N/A,,Overcast,80,2012-10-03 12:53:00
5:53 AM,46.0,37.0,71,30.34,10.0,East,4.6,-,N/A,,Overcast,90,2012-10-03 13:53:00
6:53 AM,46.9,37.0,68,30.35,10.0,Calm,Calm,-,N/A,,Overcast,0,2012-10-03 14:53:00
7:53 AM,48.0,37.0,66,30.35,10.0,Calm,Calm,-,N/A,,Overcast,0,2012-10-03 15:53:00
8:53 AM,48.0,37.0,66,30.35,10.0,Variable,3.5,-,N/A,,Overcast,0,2012-10-03 16:53:00
9:53 AM,48.0,36.0,63,30.36,10.0,Calm,Calm,-,N/A,,Overcast,0,2012-10-03 17:53:00
10:53 AM,50.0,36.0,59,30.36,10.0,Variable,3.5,-,N/A,,Overcast,0,2012-10-03 18:53:00
11:53 AM,51.1,37.0,59,30.36,10.0,Calm,Calm,-,N/A,,Overcast,0,2012-10-03 19:53:00
12:53 PM,51.1,37.0,59,30.35,10.0,Calm,Calm,-,N/A,,Overcast,0,2012-10-03 20:53:00
1:53 PM,52.0,37.0,57,30.35,10.0,Calm,Calm,-,N/A,,Overcast,0,2012-10-03 21:53:00
2:53 PM,52.0,35.1,53,30.33,10.0,Variable,5.8,-,N/A,,Overcast,0,2012-10-03 22:53:00
3:53 PM,52.0,37.0,57,30.32,10.0,ESE,9.2,-,0.00,Rain,Light Rain,110,2012-10-03 23:53:00
4:53 PM,51.1,39.0,63,30.31,10.0,ESE,9.2,-,0.00,,Overcast,110,2012-10-04 00:53:00
5:53 PM,51.1,37.9,61,30.31,10.0,ESE,6.9,20.7,N/A,,Overcast,120,2012-10-04 01:53:00
6:53 PM,51.1,39.0,63,30.30,10.0,ESE,11.5,19.6,N/A,,Overcast,120,2012-10-04 02:53:00
7:53 PM,51.1,41.0,68,30.28,10.0,ESE,10.4,19.6,N/A,,Overcast,120,2012-10-04 03:53:00
8:53 PM,50.0,42.1,74,30.29,7.0,ESE,11.5,19.6,0.00,Rain,Light Rain,120,2012-10-04 04:53:00
9:53 PM,48.0,43.0,83,30.29,10.0,ESE,6.9,-,0.01,Rain,Light Rain,120,2012-10-04 05:53:00
10:53 PM,48.9,43.0,80,30.27,10.0,ESE,10.4,17.3,0.00,Rain,Light Rain,120,2012-10-04 06:53:00
11:53 PM,48.0,44.1,86,30.26,7.0,ESE,12.7,-,0.07,Rain,Rain,120,2012-10-04 07:53:00